Simultaneous Nadir Overpasses (SNOs) Predictions

Prediction of SNOs over PacNW region [( 10.00, 139.50) to ( 22.70, 165.60)] between AQUA and NPP Satellites:

Table of predicted SNOs over PacNW region for the next 30.0 days since TLE Epoch: 10/5/2018
Index Date (AQUA) Time (AQUA) AQUA Lat,Lon Date (NPP) Time (NPP) NPP Lat,Lon Distance(km) Time Diff (sec)
1 10/10/2018 15:59:26 22.60, 147.45 10/10/2018 16:02:15 23.25, 144.57 303.98 169
2 10/18/2018 15:09:59 22.63, 159.81 10/18/2018 15:11:31 23.17, 157.22 272.57 92
3 10/21/2018 03:31:49 22.68, 147.48 10/21/2018 03:28:19 24.68, 145.25 318.04 210
4 10/26/2018 15:59:24 22.61, 147.45 10/26/2018 16:02:13 23.24, 144.53 306.51 169




NCC Satellite Simultaneous Nadir Overpasses (SNOs) Prediction Service
